When you browse on this site, cookies collect data to enhance your experience and personalize the content and advertising you see.
Visit our Privacy Policy to learn more. By continuing to use the site, you agree to this use of cookies and data.
  • Em Portugal
  • Lista de países
  • Para 7 dias
  • Temperatura da água
  • Mapas de satélite
  • Mapa do tempo
  • Widgets de tempo
  • user-avatar
    Iniciar Sessão

    Previsão horária em Kirovckoe

    Hoje, 25 Junho, Terça-feira

    Tempo Temperatura Precipitação Vento Pressão Humidade
    00:00 +22°C° 0.1 mm 3 m/s 740 mmHg 65%
    01:00 +22°C° 0.1 mm 3 m/s 740 mmHg 66%
    02:00 +22°C° 0.1 mm 3 m/s 741 mmHg 68%
    03:00 +23°C° 0.1 mm 2 m/s 741 mmHg 70%
    04:00 +22°C° 0.1 mm 3 m/s 741 mmHg 72%
    05:00 +22°C° 0.1 mm 4 m/s 741 mmHg 75%
    06:00 +22°C° 0.1 mm 4 m/s 741 mmHg 77%
    07:00 +23°C° 0 mm 5 m/s 741 mmHg 75%
    08:00 +25°C° 0 mm 5 m/s 741 mmHg 74%
    09:00 +26°C° 0 mm 6 m/s 742 mmHg 72%
    10:00 +26°C° 0.2 mm 6 m/s 742 mmHg 70%
    11:00 +26°C° 0.2 mm 6 m/s 742 mmHg 68%
    12:00 +26°C° 0.2 mm 6 m/s 742 mmHg 66%
    13:00 +26°C° 0.1 mm 6 m/s 743 mmHg 68%
    14:00 +26°C° 0.1 mm 6 m/s 743 mmHg 69%
    15:00 +26°C° 0.1 mm 6 m/s 743 mmHg 71%
    16:00 +26°C° 0.2 mm 6 m/s 743 mmHg 70%
    17:00 +26°C° 0.2 mm 6 m/s 743 mmHg 70%
    18:00 +26°C° 0.2 mm 6 m/s 743 mmHg 69%
    19:00 +24°C° 0 mm 6 m/s 743 mmHg 68%
    20:00 +23°C° 0 mm 5 m/s 744 mmHg 68%
    21:00 +22°C° 0 mm 5 m/s 744 mmHg 67%
    22:00 +21°C° 0 mm 6 m/s 744 mmHg 65%
    23:00 +21°C° 0 mm 6 m/s 744 mmHg 63%

    Amanhã, 26 Junho, Quarta-feira

    Tempo Temperatura Precipitação Vento Pressão Humidade
    00:00 +20°C° 0 mm 6 m/s 744 mmHg 61%
    01:00 +19°C° 0 mm 6 m/s 745 mmHg 63%
    02:00 +17°C° 0 mm 5 m/s 745 mmHg 65%
    03:00 +17°C° 0 mm 5 m/s 745 mmHg 67%
    04:00 +16°C° 0 mm 5 m/s 745 mmHg 69%
    05:00 +16°C° 0 mm 5 m/s 745 mmHg 70%
    06:00 +16°C° 0 mm 5 m/s 745 mmHg 72%
    07:00 +17°C° 0 mm 6 m/s 745 mmHg 67%
    08:00 +20°C° 0 mm 6 m/s 745 mmHg 63%
    09:00 +21°C° 0 mm 6 m/s 746 mmHg 58%
    10:00 +22°C° 0 mm 6 m/s 746 mmHg 54%
    11:00 +23°C° 0 mm 6 m/s 745 mmHg 50%
    12:00 +26°C° 0 mm 6 m/s 745 mmHg 46%
    13:00 +26°C° 0 mm 5 m/s 745 mmHg 45%
    14:00 +26°C° 0 mm 5 m/s 745 mmHg 43%
    15:00 +27°C° 0 mm 5 m/s 745 mmHg 41%
    16:00 +26°C° 0 mm 5 m/s 745 mmHg 43%
    17:00 +26°C° 0 mm 5 m/s 744 mmHg 45%
    18:00 +26°C° 0 mm 4 m/s 744 mmHg 47%
    19:00 +23°C° 0 mm 4 m/s 744 mmHg 52%
    20:00 +21°C° 0 mm 4 m/s 744 mmHg 57%
    21:00 +19°C° 0 mm 3 m/s 744 mmHg 62%
    22:00 +19°C° 0 mm 3 m/s 743 mmHg 65%
    23:00 +18°C° 0 mm 3 m/s 743 mmHg 68%

    Depois de amanhã, 27 Junho, Quinta-feira

    Tempo Temperatura Precipitação Vento Pressão Humidade
    00:00 +17°C° 0 mm 3 m/s 743 mmHg 71%
    01:00 +17°C° 0 mm 3 m/s 743 mmHg 73%
    02:00 +16°C° 0 mm 3 m/s 743 mmHg 74%
    03:00 +16°C° 0 mm 3 m/s 743 mmHg 75%
    04:00 +16°C° 0 mm 2 m/s 742 mmHg 74%
    05:00 +16°C° 0 mm 2 m/s 742 mmHg 73%
    06:00 +17°C° 0 mm 2 m/s 742 mmHg 72%
    07:00 +18°C° 0 mm 2 m/s 741 mmHg 65%
    08:00 +20°C° 0 mm 2 m/s 741 mmHg 58%
    09:00 +23°C° 0 mm 2 m/s 741 mmHg 51%
    10:00 +24°C° 0 mm 2 m/s 741 mmHg 47%
    11:00 +26°C° 0 mm 1 m/s 740 mmHg 42%
    12:00 +27°C° 0 mm 1 m/s 740 mmHg 38%
    13:00 +27°C° 0 mm 1 m/s 739 mmHg 36%
    14:00 +28°C° 0 mm 1 m/s 738 mmHg 34%
    15:00 +29°C° 0 mm 1 m/s 738 mmHg 33%
    16:00 +28°C° 0 mm 2 m/s 737 mmHg 34%
    17:00 +28°C° 0 mm 2 m/s 737 mmHg 36%
    18:00 +28°C° 0 mm 2 m/s 736 mmHg 38%
    19:00 +26°C° 0 mm 2 m/s 736 mmHg 42%
    20:00 +24°C° 0 mm 2 m/s 735 mmHg 46%
    21:00 +22°C° 0 mm 1 m/s 735 mmHg 49%
    22:00 +22°C° 0 mm 1 m/s 734 mmHg 50%
    23:00 +21°C° 0 mm 1 m/s 734 mmHg 51%

    28 Junho, Sexta-feira

    Tempo Temperatura Precipitação Vento Pressão Humidade
    00:00 +20°C° 0 mm 2 m/s 733 mmHg 52%
    01:00 +19°C° 0 mm 2 m/s 733 mmHg 55%
    02:00 +19°C° 0 mm 2 m/s 732 mmHg 57%
    03:00 +18°C° 0 mm 3 m/s 732 mmHg 60%
    04:00 +19°C° 0 mm 3 m/s 731 mmHg 62%
    05:00 +19°C° 0 mm 3 m/s 731 mmHg 65%
    06:00 +19°C° 0 mm 3 m/s 730 mmHg 68%
    07:00 +20°C° 0.2 mm 4 m/s 730 mmHg 71%
    08:00 +21°C° 0.2 mm 4 m/s 730 mmHg 74%
    09:00 +21°C° 0.2 mm 4 m/s 731 mmHg 77%
    10:00 +22°C° 0 mm 5 m/s 731 mmHg 71%
    11:00 +23°C° 0 mm 5 m/s 731 mmHg 64%
    12:00 +24°C° 0 mm 6 m/s 731 mmHg 57%
    13:00 +26°C° 0 mm 6 m/s 731 mmHg 55%
    14:00 +26°C° 0 mm 6 m/s 731 mmHg 52%
    15:00 +26°C° 0 mm 6 m/s 731 mmHg 49%
    16:00 +24°C° 0 mm 6 m/s 731 mmHg 50%
    17:00 +24°C° 0 mm 6 m/s 731 mmHg 51%
    18:00 +23°C° 0 mm 6 m/s 731 mmHg 52%
    19:00 +21°C° 0 mm 5 m/s 732 mmHg 58%
    20:00 +19°C° 0 mm 4 m/s 732 mmHg 63%
    21:00 +17°C° 0 mm 3 m/s 732 mmHg 69%
    22:00 +17°C° 0 mm 3 m/s 733 mmHg 72%
    23:00 +16°C° 0 mm 3 m/s 733 mmHg 75%

    29 Junho, Sábado

    Tempo Temperatura Precipitação Vento Pressão Humidade
    00:00 +14°C° 0 mm 3 m/s 733 mmHg 77%
    01:00 +14°C° 0 mm 3 m/s 733 mmHg 80%
    02:00 +13°C° 0 mm 3 m/s 733 mmHg 82%
    03:00 +12°C° 0 mm 3 m/s 733 mmHg 84%
    04:00 +13°C° 0 mm 3 m/s 733 mmHg 83%
    05:00 +13°C° 0 mm 3 m/s 733 mmHg 81%
    06:00 +13°C° 0 mm 3 m/s 733 mmHg 80%
    07:00 +16°C° 0 mm 3 m/s 733 mmHg 73%
    08:00 +17°C° 0 mm 3 m/s 733 mmHg 65%
    09:00 +19°C° 0 mm 4 m/s 733 mmHg 58%
    10:00 +20°C° 0.2 mm 4 m/s 733 mmHg 55%
    11:00 +21°C° 0.2 mm 4 m/s 733 mmHg 52%
    12:00 +22°C° 0.2 mm 4 m/s 733 mmHg 49%
    13:00 +21°C° 0.3 mm 4 m/s 733 mmHg 49%
    14:00 +21°C° 0.3 mm 5 m/s 733 mmHg 50%
    15:00 +21°C° 0.3 mm 5 m/s 732 mmHg 50%
    16:00 +21°C° 0.5 mm 5 m/s 732 mmHg 53%
    17:00 +20°C° 0.5 mm 5 m/s 733 mmHg 55%
    18:00 +20°C° 0.5 mm 5 m/s 733 mmHg 58%
    19:00 +19°C° 0.5 mm 4 m/s 733 mmHg 64%
    20:00 +17°C° 0.5 mm 4 m/s 733 mmHg 69%
    21:00 +16°C° 0.5 mm 3 m/s 733 mmHg 75%
    22:00 +14°C° 0.1 mm 3 m/s 733 mmHg 78%
    23:00 +13°C° 0.1 mm 3 m/s 733 mmHg 81%

    30 Junho, Domingo

    Tempo Temperatura Precipitação Vento Pressão Humidade
    00:00 +12°C° 0.1 mm 3 m/s 733 mmHg 83%
    01:00 +12°C° 0 mm 3 m/s 734 mmHg 84%
    02:00 +11°C° 0 mm 3 m/s 734 mmHg 85%
    03:00 +11°C° 0 mm 3 m/s 734 mmHg 85%
    04:00 +11°C° 0 mm 3 m/s 734 mmHg 83%
    05:00 +11°C° 0 mm 3 m/s 734 mmHg 82%
    06:00 +11°C° 0 mm 3 m/s 735 mmHg 80%
    07:00 +12°C° 0 mm 4 m/s 735 mmHg 73%
    08:00 +14°C° 0 mm 4 m/s 735 mmHg 65%
    09:00 +15°C° 0 mm 4 m/s 735 mmHg 58%
    10:00 +17°C° 0 mm 4 m/s 736 mmHg 53%
    11:00 +19°C° 0 mm 5 m/s 736 mmHg 47%
    12:00 +20°C° 0 mm 5 m/s 736 mmHg 42%
    13:00 +20°C° 0 mm 5 m/s 736 mmHg 42%
    14:00 +20°C° 0 mm 5 m/s 736 mmHg 41%
    15:00 +20°C° 0 mm 5 m/s 736 mmHg 40%
    16:00 +19°C° 0.1 mm 5 m/s 737 mmHg 45%
    17:00 +19°C° 0.1 mm 5 m/s 737 mmHg 49%
    18:00 +17°C° 0.1 mm 5 m/s 737 mmHg 54%
    19:00 +15°C° 0 mm 4 m/s 737 mmHg 60%
    20:00 +14°C° 0 mm 3 m/s 738 mmHg 66%
    21:00 +12°C° 0 mm 3 m/s 738 mmHg 72%
    22:00 +13°C° 0 mm 2 m/s 738 mmHg 75%
    23:00 +12°C° 0 mm 2 m/s 738 mmHg 78%
    Mostrar mais